Time,TemperatureF,DewpointF,PressureIn,WindDirection,WindDirectionDegrees,WindSpeedMPH,WindSpeedGustMPH,Humidity,HourlyPrecipIn,Conditions,Clouds,dailyrainin,SoftwareType,DateUTC
2013-03-06 00:08:00,32.5,31.0,30.03,North,9,0.0,-999.0,95,-99.99,,,0.00,weatherlink.com 1.10,2013-03-06 05:08:00,
2013-03-06 00:23:00,32.5,31.0,30.03,North,11,0.0,-999.0,95,-99.99,,,0.00,weatherlink.com 1.10,2013-03-06 05:23:00,
2013-03-06 00:38:00,32.6,31.0,30.02,North,360,0.0,-999.0,95,-99.99,,,0.00,weatherlink.com 1.10,2013-03-06 05:38:00,
2013-03-06 00:53:00,33.2,32.0,30.02,NNE,27,0.0,-999.0,96,-99.99,,,0.00,weatherlink.com 1.10,2013-03-06 05:53:00,
2013-03-06 01:08:00,34.0,33.0,30.03,NE,36,0.0,-999.0,96,-99.99,,,0.00,weatherlink.com 1.10,2013-03-06 06:08:00,
2013-03-06 01:24:00,34.3,33.0,30.02,NE,40,0.0,-999.0,96,-99.99,,,0.00,weatherlink.com 1.10,2013-03-06 06:24:00,
2013-03-06 01:38:00,34.2,33.0,30.02,NNE,26,0.0,-999.0,95,-99.99,,,0.00,weatherlink.com 1.10,2013-03-06 06:38:00,
2013-03-06 01:53:00,34.6,33.0,30.02,NNE,26,0.0,-999.0,95,-99.99,,,0.00,weatherlink.com 1.10,2013-03-06 06:53:00,
2013-03-06 02:08:00,35.1,34.0,30.02,NNE,31,0.0,-999.0,95,-99.99,,,0.00,weatherlink.com 1.10,2013-03-06 07:08:00,
2013-03-06 02:23:00,35.2,34.0,30.02,NNE,18,0.0,-999.0,95,-99.99,,,0.01,weatherlink.com 1.10,2013-03-06 07:23:00,
2013-03-06 02:38:00,35.2,34.0,30.02,NNE,25,0.0,-999.0,95,-99.99,,,0.01,weatherlink.com 1.10,2013-03-06 07:38:00,
2013-03-06 02:53:00,35.5,34.0,30.02,NNE,24,0.0,-999.0,95,-99.99,,,0.01,weatherlink.com 1.10,2013-03-06 07:53:00,
2013-03-06 03:08:00,35.5,34.0,30.02,ENE,59,0.0,-999.0,95,-99.99,,,0.01,weatherlink.com 1.10,2013-03-06 08:08:00,
2013-03-06 03:23:00,35.7,34.0,30.03,NE,42,0.0,-999.0,95,-99.99,,,0.01,weatherlink.com 1.10,2013-03-06 08:23:00,
2013-03-06 03:38:00,35.7,34.0,30.03,NE,45,0.0,-999.0,95,-99.99,,,0.01,weatherlink.com 1.10,2013-03-06 08:38:00,
2013-03-06 03:54:00,35.8,35.0,30.03,NE,42,0.0,-999.0,95,-99.99,,,0.01,weatherlink.com 1.10,2013-03-06 08:54:00,
2013-03-06 04:08:00,35.7,34.0,30.04,NE,34,0.0,-999.0,95,-99.99,,,0.01,weatherlink.com 1.10,2013-03-06 09:08:00,
2013-03-06 04:24:00,35.5,34.0,30.03,ENE,63,0.0,-999.0,95,-99.99,,,0.02,weatherlink.com 1.10,2013-03-06 09:24:00,
2013-03-06 04:39:00,35.3,34.0,30.03,NE,37,0.0,-999.0,95,-99.99,,,0.03,weatherlink.com 1.10,2013-03-06 09:39:00,
2013-03-06 04:54:00,35.2,34.0,30.03,NE,37,0.0,-999.0,95,-99.99,,,0.04,weatherlink.com 1.10,2013-03-06 09:54:00,
2013-03-06 05:09:00,35.2,34.0,30.03,ENE,73,0.0,-999.0,96,-99.99,,,0.04,weatherlink.com 1.10,2013-03-06 10:09:00,
2013-03-06 05:24:00,35.3,34.0,30.02,ENE,74,0.0,-999.0,96,-99.99,,,0.04,weatherlink.com 1.10,2013-03-06 10:24:00,
2013-03-06 05:39:00,35.5,35.0,30.02,NNE,30,0.0,-999.0,96,-99.99,,,0.04,weatherlink.com 1.10,2013-03-06 10:39:00,
2013-03-06 05:54:00,35.5,35.0,30.03,NNE,30,0.0,-999.0,96,-99.99,,,0.04,weatherlink.com 1.10,2013-03-06 10:54:00,
2013-03-06 06:09:00,35.7,35.0,30.02,NE,42,0.0,-999.0,96,-99.99,,,0.04,weatherlink.com 1.10,2013-03-06 11:09:00,
2013-03-06 06:24:00,36.0,35.0,30.03,ENE,75,0.0,-999.0,96,-99.99,,,0.05,weatherlink.com 1.10,2013-03-06 11:24:00,
2013-03-06 06:39:00,36.2,35.0,30.04,ENE,70,0.0,-999.0,96,-99.99,,,0.05,weatherlink.com 1.10,2013-03-06 11:39:00,
2013-03-06 06:54:00,36.3,35.0,30.04,East,84,0.0,-999.0,96,-99.99,,,0.05,weatherlink.com 1.10,2013-03-06 11:54:00,
2013-03-06 07:09:00,36.3,35.0,30.05,East,81,0.0,-999.0,95,-99.99,,,0.05,weatherlink.com 1.10,2013-03-06 12:09:00,
2013-03-06 07:24:00,36.5,36.0,30.06,NE,40,0.0,-999.0,96,-99.99,,,0.05,weatherlink.com 1.10,2013-03-06 12:24:00,
2013-03-06 07:39:00,36.6,35.0,30.06,ENE,78,0.0,-999.0,95,-99.99,,,0.06,weatherlink.com 1.10,2013-03-06 12:39:00,
2013-03-06 07:54:00,36.6,35.0,30.07,ENE,71,0.0,-999.0,95,-99.99,,,0.06,weatherlink.com 1.10,2013-03-06 12:54:00,
2013-03-06 08:09:00,36.5,35.0,30.07,ENE,74,0.0,-999.0,94,-99.99,,,0.06,weatherlink.com 1.10,2013-03-06 13:09:00,
2013-03-06 08:24:00,37.0,35.0,30.07,NNE,32,0.0,-999.0,93,-99.99,,,0.06,weatherlink.com 1.10,2013-03-06 13:24:00,
2013-03-06 08:39:00,37.7,35.0,30.06,ENE,63,0.0,-999.0,91,-99.99,,,0.06,weatherlink.com 1.10,2013-03-06 13:39:00,
2013-03-06 08:54:00,37.4,35.0,30.06,NE,45,0.0,-999.0,90,-99.99,,,0.06,weatherlink.com 1.10,2013-03-06 13:54:00,
2013-03-06 09:09:00,37.6,34.0,30.07,ENE,74,0.0,-999.0,87,-99.99,,,0.06,weatherlink.com 1.10,2013-03-06 14:09:00,
2013-03-06 09:24:00,38.3,33.0,30.06,ESE,111,0.0,-999.0,82,-99.99,,,0.06,weatherlink.com 1.10,2013-03-06 14:24:00,
2013-03-06 09:39:00,38.7,33.0,30.07,ESE,109,0.0,-999.0,80,-99.99,,,0.06,weatherlink.com 1.10,2013-03-06 14:39:00,
2013-03-06 09:54:00,38.8,33.0,30.07,ENE,66,0.0,-999.0,80,-99.99,,,0.06,weatherlink.com 1.10,2013-03-06 14:54:00,
2013-03-06 10:09:00,38.9,33.0,30.08,ENE,66,0.0,-999.0,79,-99.99,,,0.06,weatherlink.com 1.10,2013-03-06 15:09:00,
2013-03-06 10:24:00,38.7,34.0,30.07,ESE,109,0.0,-999.0,82,-99.99,,,0.06,weatherlink.com 1.10,2013-03-06 15:24:00,
2013-03-06 10:39:00,37.1,34.0,30.07,ENE,76,0.0,-999.0,88,-99.99,,,0.06,weatherlink.com 1.10,2013-03-06 15:39:00,
2013-03-06 10:54:00,37.9,34.0,30.07,East,82,0.0,-999.0,87,-99.99,,,0.06,weatherlink.com 1.10,2013-03-06 15:54:00,
2013-03-06 11:09:00,38.0,34.0,30.06,SE,136,0.0,-999.0,84,-99.99,,,0.06,weatherlink.com 1.10,2013-03-06 16:09:00,
2013-03-06 11:24:00,38.4,33.0,30.06,East,97,0.0,-999.0,81,-99.99,,,0.06,weatherlink.com 1.10,2013-03-06 16:24:00,
2013-03-06 11:39:00,38.4,32.0,30.06,NE,38,0.0,-999.0,79,-99.99,,,0.06,weatherlink.com 1.10,2013-03-06 16:39:00,
2013-03-06 11:54:00,37.8,34.0,30.06,NNE,29,0.0,-999.0,85,-99.99,,,0.06,weatherlink.com 1.10,2013-03-06 16:54:00,
2013-03-06 12:09:00,37.3,34.0,30.05,ENE,60,0.0,-999.0,88,-99.99,,,0.06,weatherlink.com 1.10,2013-03-06 17:09:00,
2013-03-06 12:24:00,37.8,34.0,30.05,NNE,21,0.0,-999.0,87,-99.99,,,0.06,weatherlink.com 1.10,2013-03-06 17:24:00,
2013-03-06 12:39:00,38.0,34.0,30.05,ENE,76,0.0,-999.0,84,-99.99,,,0.06,weatherlink.com 1.10,2013-03-06 17:39:00,
2013-03-06 12:54:00,38.0,34.0,30.05,NE,53,0.0,-999.0,86,-99.99,,,0.06,weatherlink.com 1.10,2013-03-06 17:54:00,
2013-03-06 13:09:00,38.5,33.0,30.05,East,91,0.0,-999.0,81,-99.99,,,0.06,weatherlink.com 1.10,2013-03-06 18:09:00,
2013-03-06 13:24:00,37.2,33.0,30.05,ESE,109,0.0,-999.0,86,-99.99,,,0.07,weatherlink.com 1.10,2013-03-06 18:24:00,
2013-03-06 13:39:00,37.2,34.0,30.05,ENE,76,0.0,-999.0,89,-99.99,,,0.07,weatherlink.com 1.10,2013-03-06 18:39:00,
2013-03-06 13:54:00,37.8,34.0,30.04,ENE,78,0.0,-999.0,86,-99.99,,,0.07,weatherlink.com 1.10,2013-03-06 18:54:00,
2013-03-06 14:09:00,38.2,34.0,30.04,ENE,63,0.0,-999.0,84,-99.99,,,0.07,weatherlink.com 1.10,2013-03-06 19:09:00,
2013-03-06 14:24:00,38.6,33.0,30.04,NE,55,0.0,-999.0,79,-99.99,,,0.07,weatherlink.com 1.10,2013-03-06 19:24:00,
2013-03-06 14:39:00,38.3,33.0,30.05,ENE,62,0.0,-999.0,80,-99.99,,,0.07,weatherlink.com 1.10,2013-03-06 19:39:00,
2013-03-06 14:54:00,37.3,33.0,30.05,NNE,32,0.0,-999.0,85,-99.99,,,0.07,weatherlink.com 1.10,2013-03-06 19:54:00,
2013-03-06 15:09:00,37.6,33.0,30.05,ENE,64,0.0,-999.0,83,-99.99,,,0.07,weatherlink.com 1.10,2013-03-06 20:09:00,
2013-03-06 15:24:00,36.4,33.0,30.05,NNE,31,0.0,-999.0,87,-99.99,,,0.08,weatherlink.com 1.10,2013-03-06 20:24:00,
2013-03-06 15:39:00,35.4,33.0,30.05,NE,43,0.0,-999.0,91,-99.99,,,0.08,weatherlink.com 1.10,2013-03-06 20:39:00,
2013-03-06 15:54:00,35.6,32.0,30.05,NE,42,0.0,-999.0,88,-99.99,,,0.08,weatherlink.com 1.10,2013-03-06 20:54:00,
2013-03-06 16:09:00,35.9,32.0,30.06,ENE,61,0.0,-999.0,86,-99.99,,,0.08,weatherlink.com 1.10,2013-03-06 21:09:00,
2013-03-06 16:24:00,36.4,31.0,30.05,NE,42,0.0,-999.0,82,-99.99,,,0.08,weatherlink.com 1.10,2013-03-06 21:24:00,
2013-03-06 16:39:00,36.5,33.0,30.05,NE,39,0.0,-999.0,86,-99.99,,,0.08,weatherlink.com 1.10,2013-03-06 21:39:00,
2013-03-06 16:54:00,36.0,32.0,30.05,East,99,0.0,-999.0,86,-99.99,,,0.08,weatherlink.com 1.10,2013-03-06 21:54:00,
2013-03-06 17:09:00,35.9,32.0,30.07,NNE,19,0.0,-999.0,87,-99.99,,,0.08,weatherlink.com 1.10,2013-03-06 22:09:00,
2013-03-06 17:24:00,35.7,32.0,30.07,NE,38,0.0,-999.0,87,-99.99,,,0.09,weatherlink.com 1.10,2013-03-06 22:24:00,
2013-03-06 17:39:00,35.7,32.0,30.07,NE,34,0.0,-999.0,87,-99.99,,,0.09,weatherlink.com 1.10,2013-03-06 22:39:00,
2013-03-06 17:54:00,35.5,32.0,30.07,NNE,22,0.0,-999.0,88,-99.99,,,0.09,weatherlink.com 1.10,2013-03-06 22:54:00,
2013-03-06 18:09:00,35.5,32.0,30.07,NNE,27,0.0,-999.0,87,-99.99,,,0.09,weatherlink.com 1.10,2013-03-06 23:09:00,
2013-03-06 18:24:00,35.0,32.0,30.06,ENE,64,0.0,-999.0,89,-99.99,,,0.09,weatherlink.com 1.10,2013-03-06 23:24:00,
2013-03-06 18:39:00,35.3,32.0,30.06,ENE,60,0.0,-999.0,88,-99.99,,,0.09,weatherlink.com 1.10,2013-03-06 23:39:00,
2013-03-06 18:54:00,34.6,32.0,30.07,NE,42,0.0,-999.0,90,-99.99,,,0.09,weatherlink.com 1.10,2013-03-06 23:54:00,
2013-03-06 19:09:00,34.1,32.0,30.06,NE,35,0.0,-999.0,92,-99.99,,,0.09,weatherlink.com 1.10,2013-03-07 00:09:00,
2013-03-06 19:24:00,34.1,32.0,30.07,ENE,64,0.0,-999.0,92,-99.99,,,0.09,weatherlink.com 1.10,2013-03-07 00:24:00,
2013-03-06 19:39:00,33.8,32.0,30.08,ENE,71,0.0,-999.0,93,-99.99,,,0.00,weatherlink.com 1.10,2013-03-07 00:39:00,
2013-03-06 19:54:00,33.9,32.0,30.08,ENE,63,0.0,-999.0,94,-99.99,,,0.01,weatherlink.com 1.10,2013-03-07 00:54:00,
2013-03-06 20:09:00,34.0,33.0,30.07,ENE,65,0.0,-999.0,94,-99.99,,,0.01,weatherlink.com 1.10,2013-03-07 01:09:00,
2013-03-06 20:24:00,34.0,33.0,30.07,NE,44,0.0,-999.0,94,-99.99,,,0.02,weatherlink.com 1.10,2013-03-07 01:24:00,
2013-03-06 20:39:00,34.0,33.0,30.07,NE,41,0.0,-999.0,94,-99.99,,,0.02,weatherlink.com 1.10,2013-03-07 01:39:00,
2013-03-06 20:54:00,33.8,33.0,30.06,NE,34,0.0,-999.0,95,-99.99,,,0.02,weatherlink.com 1.10,2013-03-07 01:54:00,
2013-03-06 21:09:00,34.1,33.0,30.06,NE,44,0.0,-999.0,94,-99.99,,,0.02,weatherlink.com 1.10,2013-03-07 02:09:00,
2013-03-06 21:24:00,33.9,32.0,30.05,ENE,57,0.0,-999.0,94,-99.99,,,0.02,weatherlink.com 1.10,2013-03-07 02:24:00,
2013-03-06 21:39:00,33.5,32.0,30.05,NE,37,0.0,-999.0,94,-99.99,,,0.02,weatherlink.com 1.10,2013-03-07 02:39:00,
2013-03-06 21:54:00,33.5,32.0,30.05,NNE,28,0.0,-999.0,95,-99.99,,,0.03,weatherlink.com 1.10,2013-03-07 02:54:00,
2013-03-06 22:09:00,33.4,32.0,30.05,ENE,70,0.0,-999.0,94,-99.99,,,0.03,weatherlink.com 1.10,2013-03-07 03:09:00,
2013-03-06 22:24:00,33.4,32.0,30.05,NNE,24,0.0,-999.0,94,-99.99,,,0.03,weatherlink.com 1.10,2013-03-07 03:24:00,
2013-03-06 22:39:00,33.4,32.0,30.05,NE,51,0.0,-999.0,94,-99.99,,,0.03,weatherlink.com 1.10,2013-03-07 03:39:00,
2013-03-06 22:54:00,33.3,32.0,30.05,NE,40,0.0,-999.0,95,-99.99,,,0.03,weatherlink.com 1.10,2013-03-07 03:54:00,
2013-03-06 23:09:00,33.3,32.0,30.05,East,80,0.0,-999.0,95,-99.99,,,0.03,weatherlink.com 1.10,2013-03-07 04:09:00,
2013-03-06 23:24:00,33.2,32.0,30.05,NE,50,0.0,-999.0,95,-99.99,,,0.03,weatherlink.com 1.10,2013-03-07 04:24:00,
2013-03-06 23:39:00,33.2,32.0,30.05,NNE,26,0.0,-999.0,95,-99.99,,,0.03,weatherlink.com 1.10,2013-03-07 04:39:00,
2013-03-06 23:54:00,33.2,32.0,30.05,NNE,19,0.0,-999.0,95,-99.99,,,0.03,weatherlink.com 1.10,2013-03-07 04:54:00,